Terminal Aerodrome Forecast
Issued by NWS Cleveland, OH

Home | Current Version | Previous Version | Text Only | Print | Product List | Glossary Off
Versions: 1 2 3 4 5 6 7 8 9 10 11 12 13 14 15 16 17 18 19

000
FTUS41 KCLE 221100
TAFTOL
TAF
KTOL 221130Z 2212/2312 29014KT P6SM BKN012 OVC035
     FM221600 30020G28KT P6SM BKN035
     FM230100 32010KT P6SM SCT030=

USA.gov is the U.S. government's official web portal to all federal, state and local government web resources and services.